User: anonymous   Login
Location: Unspecified
(0.0000°N, 0.0000°E)
Time: 06:08:28
(UTC+00:00)
Language:

ITUPSAT 1 - Orbit

View from above orbital plane
View from above orbital plane
View from above satellite
View from above satellite

Ground track
Ground track

The orbit data is extracted from the following two-line orbital elements,

1 35935U 09051E   17296.33352003 +.00000155 +00000-0 +46776-4 0  9999
2 35935 098.5294 078.9209 0007497 218.4107 141.6556 14.55372696428841
Epoch (UTC): 23 October 2017 08:00:16
Eccentricity: 0.0007497
inclination: 98.5294°
perigee height: 703 km
apogee height: 713 km
right ascension of ascending node: 78.9209°
argument of perigee: 218.4107°
revolutions per day: 14.55372696
mean anomaly at epoch: 141.6556°
orbit number at epoch: 42884

The dashed part of the orbit path shows where the satellite is in the earth's shadow,  

DLR